Regional Weather Roundup
Issued by NWS

Home | Current Version | Previous Version | Graphics & Text | Print | Product List | Glossary Off
Versions: 1 2 3 4 5 6 7 8 9 10 11 12 13 14 15 16 17 18 19 20 21 22 23 24 25 26 27 28 29 30 31 32 33 34 35 36 37 38 39 40 41 42 43 44 45 46 47 48 49 50

000
ASUS43 KMKX 301459
RWRWI

WISCONSIN REGIONAL WEATHER ROUNDUP
NATIONAL WEATHER SERVICE MILWAUKEE/SULLIVAN WI
900 AM CST FRI JAN 30 2015

NOTE: "FAIR" INDICATES FEW OR NO CLOUDS BELOW 12,000 FEET WITH NO
SIGNIFICANT WEATHER AND/OR OBSTRUCTIONS TO VISIBILITY.

WIZ001-002-006>008-014>016-023>028-301600-
NORTHWEST WISCONSIN

CITY           SKY/WX    TMP DP  RH WIND       PRES   REMARKS
SUPERIOR ARPT  PTSUNNY    4  -1  79 SW3       30.52S
ASHLAND        CLOUDY     6   1  80 W5        30.52R WCI  -3
HAYWARD        CLOUDY     1  -2  87 CALM      30.48S
SIREN          MOSUNNY    4  -1  81 CALM      30.51F
CUMBERLAND     MOSUNNY    0  -6  78 CALM      30.48R
RICE LAKE      MOSUNNY    3  -1  85 CALM      30.51S
CHETEK         MOSUNNY    4   0  81 CALM      30.51S
LADYSMITH      CLOUDY     5   1  81 CALM      30.50R
EAU CLAIRE     NOT AVBL
MENOMONIE      MOSUNNY    9   1  72 CALM      30.53S
NEW RICHMOND   CLOUDY     7   1  75 CALM      30.51S
OSCEOLA        CLOUDY     8   1  75 CALM      30.55S
$$

WIZ003>005-009-010-017-018-301600-
NORTH CENTRAL WISCONSIN

CITY           SKY/WX    TMP DP  RH WIND       PRES   REMARKS
MANITOWISH WTR FLURRIES   9   3  77 NW6       30.42R WCI  -1
ARBOR VITAE    CLOUDY    11   4  73 CALM      30.41S
WOODRUFF       CLOUDY    11   4  73 CALM      30.41S
RHINELANDER    CLOUDY     9   2  73 CALM      30.42R
EAGLE RIVER    CLOUDY     9   2  71 N3        30.41R
LAND O LAKES   CLOUDY    10   4  76 CALM      30.41S
PHILLIPS       MOSUNNY    6   2  82 CALM      30.44R
TOMAHAWK       MOSUNNY    9   2  72 CALM      30.44R
MEDFORD        CLOUDY     6   2  84 CALM      30.44R
MERRILL        PTSUNNY   11   4  71 NW3       30.46R
$$

WIZ029-030-035-036-043>047-301600-
CENTRAL WISCONSIN

CITY           SKY/WX    TMP DP  RH WIND       PRES   REMARKS
WAUSAU         PTSUNNY   11   3  70 NW5       30.46R WCI   3
MOSINEE        NOT AVBL
MARSHFIELD     CLOUDY     8   2  76 NW5       30.47R WCI   0
STEVENS POINT  PTSUNNY   10   2  70 CALM      30.48S
WAUPACA        CLOUDY    18   6  59 NW5       30.51R WCI  11
WAUTOMA        NOT AVBL
WISC RAPIDS    PTSUNNY   12   3  67 CALM      30.51R
CAMP DOUGLAS   NOT AVBL
$$

WIZ011>013-019>022-031-037>040-048>050-301600-
NORTHEAST WISCONSIN

CITY           SKY/WX    TMP DP  RH WIND       PRES   REMARKS
ANTIGO         CLOUDY    10   4  74 CALM      30.43S
SHAWANO        CLOUDY    16   5  62 NW5       30.51R WCI   8
OCONTO         CLOUDY    14   3  62 CALM      30.52R
STURGEON BAY   CLOUDY    12   1  62 N13       30.52R WCI  -3
GREEN BAY      MOSUNNY   18   6  59 N5        30.52R WCI  11
MANITOWOC      NOT AVBL
APPLETON       MOSUNNY   16   3  57 N6        30.49S WCI   7
CLINTONVILLE   CLOUDY    16   5  62 NE3       30.50S
OSHKOSH        SUNNY     17   5  59 NW7       30.50R WCI   8
$$

WIZ032>034-041-042-053>061-301600-
SOUTHWEST WISCONSIN

CITY           SKY/WX    TMP DP  RH WIND       PRES   REMARKS
LA CROSSE      MOSUNNY   14   4  64 N5        30.56R WCI   6
SPARTA         CLOUDY    10   4  75 CALM      30.53S
VIROQUA        MOSUNNY   11   6  79 CALM      30.48S
BOSCOBEL       PTSUNNY   16   7  67 CALM      30.56R
PRAIRIE DU CHI MOSUNNY   16   8  71 NW5       30.56R WCI   9
PLATTEVILLE    MOSUNNY   15   9  76 NW6       30.52R WCI   6
$$

WIZ056-057-062-063-064-067-068-301600-
SOUTH CENTRAL WISCONSIN

CITY           SKY/WX    TMP DP  RH WIND       PRES   REMARKS
REEDSBURG      PTSUNNY   12   6  76 CALM      30.51S
BARABOO/DELLS  PTSUNNY   13   6  74 NW6       30.51R WCI   4
LONE ROCK      NOT AVBL
MINERAL POINT  PTSUNNY   18  10  73 N5        30.49S WCI  11
MADISON        PTSUNNY   17   8  67 N7        30.51R WCI   8
MIDDLETON      PTSUNNY   17   8  66 NW6       30.51R WCI   9
WATERTOWN      MOSUNNY   17   7  66 N6        30.50R WCI   8
MONROE         MOSUNNY   18  10  73 N8        30.49R WCI   7
JANESVILLE     SUNNY     19  10  68 NW5       30.51R WCI  13
$$

WIZ051-052-058>065-066-070>072-301600-
SOUTHEAST WISCONSIN

CITY           SKY/WX    TMP DP  RH WIND       PRES   REMARKS
MILWAUKEE      MOSUNNY   21   7  54 N7        30.51R WCI  12
WAUKESHA       SUNNY     16   5  62 NW6       30.51R WCI   7
MILWAUKEE/TIMM NOT AVBL
RACINE         SUNNY     20   8  60 NW8       30.52R WCI  10
BURLINGTON     SUNNY     17   5  60 N8        30.51R WCI   6
KENOSHA        SUNNY     21   9  59 N8        30.50S WCI  11
FOND DU LAC    FLURRIES  17   6  62 NW6       30.50R WCI   9
SHEBOYGAN      SUNNY     18   6  59 N8        30.50R WCI   8
WEST BEND      SUNNY     18   7  62 NW8       30.49R WCI   7
JUNEAU         MOSUNNY   15   6  68 NW6       30.50S WCI   6
$$

LSZ147-162-301600-
LAKE SUPERIOR

STATION/POSITION TIME  TEMP    WIND        PRES    WAVE
                       AIR SEA DIR/SP/G            HT/PER
                 (UTC) (F)     (DEG/KT/KT) (MB)    (FT/S)
DEVILS ISLAND    1400   13     270/  9/ 12 1034.1R
PORT WING        1400    9     220/  5/  9 1033.2R
SAXON HARBOR     1400   13        CALM     1032.8R
$$

LMZ867-665-643>646-301600-
LAKE MICHIGAN

STATION/POSITION TIME  TEMP    WIND        PRES    WAVE
                       AIR SEA DIR/SP/G            HT/PER
                 (UTC) (F)     (DEG/KT/KT) (MB)    (FT/S)
NORTHPORT PIER   1410   13     310/ 14/ 21 1032.5R
SISTER BAY       1413   17      10/ 12/ 15   N/A
KEWAUNEE LAKESHO 1400   13     350/  5/  8 1032.0R
SHEBOYGAN LAKESH 1400   18     360/ 14/ 17 1034.2R
PORT WASHINGTON  1400   19     360/  3/  6 1033.5
MILWAUKEE LAKESH 1400   18     300/  5/  6   N/A
KENOSHA   LAKESH 1400   18     310/  9/ 12 1032.5R
$$

TC  - TEMPERATURE IN CELSIUS
VSB - VISIBILITY IN STATUTE MILES
WCI - WIND CHILL INDEX
HX  - HEAT INDEX



USA.gov is the U.S. government's official web portal to all federal, state and local government web resources and services.